[[{"header":{"parameterUnit":"m.s-1","parameterCategory":1,"la1":30.2991,"la2":30.254,"lo1":-89.0895,"lo2":-89.0444,"dy":0.0017,"dx":0.0017,"nx":28,"ny":28,"refTime":"2023-10-31T09:00:00:Z","depth":0,"parameterNumber":2,"parameterNumberName":"U-component_of_WINDS"},"data":[0,0,0,0,0,0,0,0,0,0,0,0,0,0,0,0,0,0,0,0,0,0,0,0,0,0,0,0,0,0,0,0,0,0,0,0,0,0,0,0,0,0,0,0,0,0,0,0,0,0,0,0,0,0,0,0,0,0,1.1075,1.1075,0,1.1039,1.1038,1.1038,1.1019,1.1018,1.1018,1.1018,1.0978,1.0977,1.0976,0,0,0,0,0,0,0,0,0,0,0,0,0,1.1126,1.1125,1.1075,1.1075,1.1074,1.1039,1.1038,1.1038,1.1019,1.1018,1.1018,1.1018,1.0978,1.0977,1.0976,0,0,0,0,0,0,0,0,0,0,0,0,0,1.1098,1.1125,1.1075,1.106,1.1059,1.1039,1.1038,1.1038,1.1019,1.1018,1.1018,1.1018,1.0979,1.0977,1.0975,1.0966,0,0,1.0971,1.097,0,0,0,0,0,0,0,0,1.11,1.1096,1.1063,1.1061,1.106,1.1033,1.1041,1.1014,1.1019,1.1034,1.1018,1.1018,1.0996,1.0993,1.0986,1.0964,1.0963,1.097,1.0969,1.0969,1.0968,0,0,0,0,0,0,0,1.1102,1.1098,1.1061,1.1063,1.106,1.1055,1.1051,1.1036,1.1015,1.1032,1.1031,1.1027,1.0995,1.0988,1.0985,1.0962,1.097,1.0969,1.0968,1.0967,1.0932,1.0932,0,0,0,0,0,0,1.1106,1.1099,1.1062,1.1059,1.108,1.1054,1.105,1.1042,1.1016,1.1012,1.1027,1.1026,1.099,1.0987,1.0984,1.0972,1.0969,1.0967,1.0966,1.0932,1.0932,1.0932,0,0,0,0,0,0,1.1107,1.1103,1.1063,1.1079,1.1074,1.1053,1.1044,1.1041,1.1034,1.1012,1.1008,1.1024,1.099,1.0986,1.0971,1.097,1.0967,1.0965,1.0932,1.0932,1.0932,1.0947,0,0,0,0,0,0,1.1109,1.1104,1.11,1.1079,1.1073,1.1052,1.1044,1.104,1.1031,1.103,1.1007,1.1003,1.099,1.0974,1.097,1.0968,1.0964,1.0932,1.0932,1.0932,1.0947,1.0948,1.0949,0,0,0,0,0,1.1111,1.1105,1.11,1.1096,1.1068,1.1052,1.1048,1.1034,1.1031,1.1028,1.1014,1.1004,1.0971,1.0972,1.0968,1.0965,1.0932,1.0932,1.0932,1.0946,1.0948,1.0949,0,0,0,0,0,0,1.1125,1.1102,1.1096,1.1084,1.107,1.1049,1.1044,1.1036,1.1022,1.1021,1.1002,1.0997,1.0985,1.0973,1.0975,1.0955,1.095,1.0949,1.0963,1.0964,1.0965,1.0968,1.0963,0,0,0,0,0,1.1127,1.1117,1.1097,1.1088,1.1081,1.1064,1.1056,1.1047,1.1031,1.1025,1.101,1.0995,1.0981,1.0972,1.0958,1.0946,1.094,1.0941,1.0942,1.0943,1.0942,1.0936,1.0936,1.0932,1.0932,1.0932,0,0,1.1131,1.1117,1.1111,1.109,1.1079,1.1068,1.1059,1.1047,1.1039,1.1023,1.1008,1.0997,1.0979,1.0966,1.0959,1.0956,1.0943,1.0943,1.0944,1.0943,1.0936,1.0936,1.0936,1.0932,1.0932,1.0932,0,0,1.1131,1.112,1.1111,1.11,1.1083,1.1072,1.107,1.105,1.1043,1.1028,1.1016,1.1006,1.0982,1.097,1.0961,1.0959,1.0949,1.0954,1.0959,1.0953,1.0953,1.0953,1.0952,1.0952,1.0954,1.0954,1.0954,0,1.1137,1.1121,1.1108,1.1097,1.1089,1.1075,1.1066,1.1056,1.1035,1.1029,1.1026,1.0997,1.0984,1.0968,1.0968,1.0961,1.0957,1.0956,1.0954,1.0954,1.0954,1.0953,1.0953,1.0955,1.0955,1.0954,1.0954,0,1.1129,1.1119,1.1114,1.1095,1.1086,1.1076,1.1061,1.1053,1.1045,1.1034,1.102,1.1004,1.0986,1.0982,1.0973,1.0965,1.0964,1.0958,1.0952,1.0956,1.0954,1.0954,1.0956,1.0955,1.0955,1.0955,0,0,1.1137,1.1113,1.1111,1.1103,1.1084,1.1075,1.1065,1.1049,1.1043,1.1029,1.102,1.1001,1.0996,1.0986,1.0976,1.097,1.097,1.0965,1.0964,1.0966,1.096,1.0964,1.0964,1.0964,1.0964,1.0964,1.0962,0,1.1134,1.1117,1.1105,1.1092,1.1081,1.1069,1.1061,1.1048,1.1038,1.1027,1.1015,1.1002,1.0997,1.099,1.0984,1.0971,1.0968,1.0971,1.0954,1.0954,1.0959,1.0963,1.0967,1.0966,1.0961,1.0961,1.0961,0,1.1129,1.1117,1.1103,1.1087,1.1082,1.1074,1.106,1.105,1.1035,1.1028,1.1018,1.1008,1.0996,1.0993,1.0976,1.0979,1.0971,1.0964,1.0964,1.0961,1.0957,1.096,1.0965,1.0965,1.096,1.096,1.096,0,1.1136,1.1117,1.1106,1.1099,1.1079,1.1075,1.1066,1.1051,1.1043,1.103,1.1025,1.1011,1.1002,1.0991,1.0978,1.0976,1.0963,1.0958,1.0956,1.0957,1.0953,1.0953,1.0956,1.0949,1.0949,1.0949,1.0949,0,1.1134,1.1126,1.1109,1.1102,1.1093,1.108,1.107,1.1061,1.1048,1.1039,1.1027,1.1019,1.1002,1.0991,1.098,1.0968,1.0965,1.0958,1.0955,1.0959,1.096,1.0953,1.0953,1.0949,1.0949,1.0949,1.0949,0,1.114,1.1128,1.1116,1.1099,1.1094,1.1088,1.1073,1.1066,1.1056,1.1044,1.1041,1.1024,1.1011,1.0997,1.0979,1.0972,1.096,1.0956,1.0966,1.0964,1.0963,1.0963,1.0961,1.096,1.0955,1.0955,1.0955,0,1.1139,1.1133,1.1116,1.111,1.1102,1.1092,1.1084,1.1071,1.1063,1.1047,1.1041,1.1028,1.1016,1.0996,1.0982,1.0968,1.0964,1.0964,1.0961,1.0965,1.0963,1.0964,1.0963,1.0964,1.0965,1.0965,1.0965,0,1.114,1.1135,1.1124,1.1112,1.1104,1.1093,1.1082,1.1078,1.1062,1.1054,1.1041,1.1033,1.1015,1.1002,1.0986,1.0977,1.0968,1.0966,1.0965,1.0968,1.0974,1.0971,1.0967,1.0966,1.0966,1.0966,1.0966,1.0966,1.1142,1.1136,1.1124,1.1113,1.1104,1.1094,1.1087,1.1077,1.1066,1.1051,1.1044,1.1032,1.1018,1.0997,1.0988,1.0977,1.0974,1.0972,1.0972,1.0972,1.0973,1.0976,1.0974,1.0974,1.0974,1.0974,1.0974,0,1.1142,1.1134,1.1124,1.111,1.1101,1.1096,1.1084,1.1076,1.1066,1.1054,1.1044,1.103,1.1017,1.1003,1.0989,1.0983,1.0979,1.098,1.098,1.0978,1.0976,1.0978,1.0984,1.0984,1.0984,1.0984,1.0984,1.0984,1.1141,1.1131,1.1124,1.111,1.1101,1.109,1.1083,1.1074,1.1065,1.105,1.104,1.1031,1.1019,1.1004,1.0992,1.0988,1.0984,1.0986,1.0981,1.0979,1.0978,1.0977,1.0979,1.0985,1.0985,1.0984,1.0984,1.0984]},{"header":{"parameterUnit":"m.s-1","parameterCategory":1,"la1":30.2991,"la2":30.254,"lo1":-89.0895,"lo2":-89.0444,"dy":0.0017,"dx":0.0017,"nx":28,"ny":28,"refTime":"2023-10-31T09:00:00:Z","depth":0,"parameterNumber":3,"parameterNumberName":"V-component_of_WINDS"},"data":[0,0,0,0,0,0,0,0,0,0,0,0,0,0,0,0,0,0,0,0,0,0,0,0,0,0,0,0,0,0,0,0,0,0,0,0,0,0,0,0,0,0,0,0,0,0,0,0,0,0,0,0,0,0,0,0,0,0,-8.3403,-8.3404,0,-8.3495,-8.3496,-8.3497,-8.343,-8.3427,-8.3424,-8.3422,-8.3508,-8.3513,-8.3518,0,0,0,0,0,0,0,0,0,0,0,0,0,-8.3163,-8.3168,-8.3403,-8.3404,-8.3406,-8.3495,-8.3496,-8.3498,-8.3431,-8.3427,-8.3424,-8.342,-8.3507,-8.3513,-8.3519,0,0,0,0,0,0,0,0,0,0,0,0,0,-8.3263,-8.317,-8.3403,-8.3383,-8.3382,-8.3495,-8.3496,-8.3498,-8.3432,-8.3427,-8.3423,-8.3419,-8.3505,-8.3512,-8.352,-8.3654,0,0,-8.3543,-8.3546,0,0,0,0,0,0,0,0,-8.3257,-8.3271,-8.3385,-8.3385,-8.3384,-8.3447,-8.3443,-8.355,-8.3433,-8.3413,-8.3422,-8.3417,-8.3491,-8.3499,-8.3526,-8.3658,-8.3662,-8.3543,-8.3548,-8.3551,-8.3553,0,0,0,0,0,0,0,-8.325,-8.3267,-8.3439,-8.3387,-8.3386,-8.3368,-8.3377,-8.3463,-8.3475,-8.3414,-8.341,-8.3422,-8.349,-8.3519,-8.3528,-8.3663,-8.3543,-8.355,-8.3555,-8.3557,-8.391,-8.3915,0,0,0,0,0,0,-8.3246,-8.3262,-8.3436,-8.3442,-8.3309,-8.3376,-8.3386,-8.3431,-8.3474,-8.3477,-8.3425,-8.3418,-8.3508,-8.3519,-8.353,-8.3691,-8.3551,-8.3558,-8.3563,-8.3906,-8.3912,-8.3917,0,0,0,0,0,0,-8.3241,-8.3262,-8.3433,-8.3351,-8.3371,-8.3384,-8.3436,-8.3435,-8.3464,-8.3483,-8.3484,-8.3453,-8.3505,-8.352,-8.3624,-8.3693,-8.3562,-8.3568,-8.39,-8.3908,-8.3914,-8.4014,0,0,0,0,0,0,-8.3235,-8.3261,-8.3314,-8.3353,-8.3376,-8.3528,-8.344,-8.344,-8.3478,-8.347,-8.3509,-8.3511,-8.3503,-8.3614,-8.3632,-8.3701,-8.3574,-8.3894,-8.3903,-8.3912,-8.4004,-8.4023,-8.404,0,0,0,0,0,-8.3226,-8.3336,-8.3317,-8.3338,-8.3443,-8.3532,-8.3545,-8.3535,-8.3484,-8.3536,-8.3548,-8.351,-8.3683,-8.3625,-8.3645,-8.3718,-8.3889,-8.3901,-8.3911,-8.3996,-8.402,-8.4039,0,0,0,0,0,0,-8.3302,-8.3341,-8.332,-8.3446,-8.3487,-8.352,-8.3586,-8.356,-8.3613,-8.3603,-8.3586,-8.3595,-8.3705,-8.3721,-8.3656,-8.385,-8.3778,-8.3793,-8.3836,-8.3858,-8.3875,-8.3869,-8.3581,0,0,0,0,0,-8.3334,-8.3406,-8.3435,-8.3543,-8.3565,-8.3572,-8.3611,-8.36,-8.364,-8.3656,-8.3675,-8.3714,-8.3776,-8.3818,-8.3877,-8.4006,-8.4014,-8.4066,-8.4084,-8.4098,-8.4112,-8.4182,-8.4205,-8.3953,-8.3953,-8.3952,0,0,-8.34,-8.343,-8.3475,-8.3559,-8.3589,-8.3662,-8.3587,-8.3666,-8.372,-8.3667,-8.3768,-8.3784,-8.3825,-8.3943,-8.3996,-8.396,-8.4183,-8.4112,-8.4124,-8.4129,-8.4195,-8.4219,-8.424,-8.396,-8.3959,-8.3957,0,0,-8.3556,-8.3587,-8.3681,-8.3714,-8.3761,-8.3766,-8.3788,-8.3827,-8.3836,-8.3938,-8.39,-8.3962,-8.4071,-8.4102,-8.4132,-8.4303,-8.427,-8.4322,-8.4415,-8.4483,-8.4503,-8.4521,-8.4581,-8.4604,-8.4336,-8.4336,-8.4336,0,-8.3631,-8.3742,-8.3732,-8.3816,-8.3853,-8.3812,-8.3907,-8.3937,-8.4001,-8.4027,-8.3986,-8.4123,-8.4148,-8.4273,-8.4315,-8.4341,-8.4365,-8.4318,-8.4502,-8.4519,-8.4535,-8.4593,-8.4616,-8.4342,-8.4341,-8.4341,-8.434,0,-8.3831,-8.3908,-8.3978,-8.4044,-8.409,-8.4178,-8.418,-8.4227,-8.4212,-8.422,-8.4324,-8.4353,-8.4417,-8.4446,-8.4432,-8.457,-8.4546,-8.4504,-8.4431,-8.4566,-8.462,-8.4642,-8.4351,-8.4349,-8.4347,-8.4345,0,0,-8.4037,-8.4098,-8.4124,-8.4154,-8.4204,-8.4262,-8.4348,-8.4414,-8.4454,-8.4499,-8.457,-8.4664,-8.4627,-8.4661,-8.4649,-8.471,-8.4843,-8.466,-8.4661,-8.4693,-8.4997,-8.5028,-8.5054,-8.4822,-8.4826,-8.4829,-8.4993,0,-8.4196,-8.435,-8.4344,-8.4486,-8.4557,-8.452,-8.4595,-8.4632,-8.4643,-8.4702,-8.4712,-8.4779,-8.4724,-8.4745,-8.4803,-8.4815,-8.4904,-8.4803,-8.4886,-8.4889,-8.4877,-8.5082,-8.5115,-8.5268,-8.5014,-8.5018,-8.502,0,-8.4403,-8.4459,-8.4609,-8.465,-8.4679,-8.4747,-8.4807,-8.4866,-8.4907,-8.491,-8.495,-8.4929,-8.5015,-8.4941,-8.5057,-8.4989,-8.5022,-8.5033,-8.5039,-8.5046,-8.4963,-8.5094,-8.5317,-8.534,-8.5053,-8.5051,-8.5048,0,-8.4538,-8.465,-8.4755,-8.4781,-8.4832,-8.488,-8.4903,-8.4941,-8.4981,-8.5033,-8.5059,-8.5119,-8.5152,-8.5198,-8.5193,-8.5139,-8.5312,-8.5237,-8.5315,-8.5316,-8.5353,-8.5351,-8.5584,-8.5375,-8.5375,-8.5375,-8.5374,0,-8.4717,-8.481,-8.4817,-8.4881,-8.4984,-8.4976,-8.5078,-8.5095,-8.5129,-8.5195,-8.5165,-8.5226,-8.5217,-8.5278,-8.5275,-8.5372,-8.5387,-8.539,-8.5388,-8.5393,-8.5393,-8.5415,-8.5404,-8.5381,-8.5379,-8.5378,-8.5377,0,-8.4885,-8.4893,-8.5005,-8.5045,-8.5057,-8.5131,-8.5164,-8.5224,-8.5232,-8.5315,-8.5334,-8.5347,-8.5417,-8.5418,-8.5498,-8.5495,-8.5615,-8.56,-8.5602,-8.5599,-8.5677,-8.567,-8.5933,-8.5967,-8.5736,-8.5738,-8.574,0,-8.4998,-8.5069,-8.5118,-8.5161,-8.5188,-8.5258,-8.53,-8.5294,-8.5339,-8.5393,-8.5446,-8.5515,-8.5569,-8.5684,-8.5698,-8.5759,-8.5746,-8.5834,-8.5755,-8.5758,-8.5747,-8.5743,-8.575,-8.5849,-8.5852,-8.5854,-8.5855,0,-8.5198,-8.5199,-8.5262,-8.5328,-8.538,-8.543,-8.5476,-8.5512,-8.5512,-8.5563,-8.5637,-8.568,-8.5763,-8.5831,-8.589,-8.5911,-8.5883,-8.5881,-8.5902,-8.5907,-8.5905,-8.5908,-8.5644,-8.5874,-8.5872,-8.5871,-8.587,-8.5869,-8.5342,-8.5404,-8.5449,-8.552,-8.5555,-8.56,-8.5659,-8.5676,-8.5738,-8.5808,-8.58,-8.5882,-8.5922,-8.5999,-8.6025,-8.6088,-8.6057,-8.6088,-8.6095,-8.6103,-8.6112,-8.5896,-8.6098,-8.6098,-8.6097,-8.6097,-8.6096,0,-8.5541,-8.5568,-8.5634,-8.5702,-8.5758,-8.573,-8.578,-8.5828,-8.5902,-8.5943,-8.5998,-8.6083,-8.6149,-8.617,-8.6233,-8.628,-8.6268,-8.6296,-8.6293,-8.6298,-8.6136,-8.6111,-8.6304,-8.6304,-8.6304,-8.6304,-8.6304,-8.6304,-8.5651,-8.5755,-8.5762,-8.5882,-8.5908,-8.5991,-8.6022,-8.6062,-8.6095,-8.6192,-8.6249,-8.6263,-8.6295,-8.6361,-8.6421,-8.6425,-8.6449,-8.6483,-8.6482,-8.633,-8.6309,-8.6289,-8.6266,-8.6488,-8.6489,-8.6638,-8.664,-8.6641]}]]